| time (UTC) | temp F | wind direction | speed MPH | gust MPH | rain 1hr in | rain 24hr in | rain mn in | humidity % | barometer mb |
| 20260831042141 | 82 | 229 | 0.0 | 0.0 | 0.00 | 0.00 | 0.00 | 79 | 1009.0 |
| 20260831041629 | 82 | 229 | 0.0 | 0.0 | 0.00 | 0.00 | 0.00 | 79 | 1009.1 |
| 20260831041128 | 82 | 229 | 0.0 | 0.0 | 0.00 | 0.00 | 0.00 | 79 | 1009.1 |
| 20260831040636 | 82 | 229 | 0.0 | 0.0 | 0.00 | 0.00 | 0.00 | 79 | 1009.1 |
| 20260831040123 | 82 | 229 | 0.0 | 0.0 | 0.00 | 0.00 | 0.00 | 78 | 1009.2 |
| 20260831035626 | 82 | 229 | 0.0 | 0.0 | 0.00 | 0.00 | 0.00 | 78 | 1009.3 |
| 20260831035126 | 83 | 229 | 0.0 | 0.0 | 0.00 | 0.00 | 0.00 | 78 | 1009.3 |
| 20260831034650 | 83 | 229 | 0.0 | 0.0 | 0.00 | 0.00 | 0.00 | 78 | 1009.3 |
| 20260831034127 | 83 | 229 | 0.0 | 0.0 | 0.00 | 0.00 | 0.00 | 77 | 1009.3 |
| 20260831033656 | 83 | 229 | 0.0 | 0.0 | 0.00 | 0.00 | 0.00 | 77 | 1009.4 |
| 20260831033131 | 83 | 229 | 0.0 | 0.0 | 0.00 | 0.00 | 0.00 | 77 | 1009.3 |
| 20260831032619 | 83 | 229 | 0.0 | 1.0 | 0.00 | 0.00 | 0.00 | 77 | 1009.3 |
| 20260831032121 | 83 | 229 | 0.0 | 1.0 | 0.00 | 0.00 | 0.00 | 77 | 1009.3 |
| 20260831031623 | 82 | 229 | 0.0 | 1.0 | 0.00 | 0.00 | 0.00 | 78 | 1009.4 |
| 20260831031121 | 82 | 229 | 0.0 | 0.0 | 0.00 | 0.00 | 0.00 | 78 | 1009.4 |
| 20260831030624 | 83 | 229 | 0.0 | 0.0 | 0.00 | 0.00 | 0.00 | 78 | 1009.5 |
| 20260831030123 | 83 | 229 | 0.0 | 0.0 | 0.00 | 0.00 | 0.00 | 78 | 1009.7 |
| 20260831025630 | 83 | 229 | 0.0 | 0.0 | 0.00 | 0.00 | 0.00 | 77 | 1009.6 |
| 20260831025130 | 83 | 229 | 0.0 | 0.0 | 0.00 | 0.00 | 0.00 | 77 | 1009.6 |
| 20260831024618 | 83 | 229 | 0.0 | 0.0 | 0.00 | 0.00 | 0.00 | 77 | 1009.6 |
| 20260831024155 | 83 | 229 | 0.0 | 0.0 | 0.00 | 0.00 | 0.00 | 76 | 1009.6 |
| 20260831023623 | 84 | 229 | 0.0 | 0.0 | 0.00 | 0.00 | 0.00 | 76 | 1009.6 |
| 20260831023121 | 84 | 229 | 0.0 | 0.0 | 0.00 | 0.00 | 0.00 | 76 | 1009.5 |
| 20260831022625 | 84 | 229 | 0.0 | 0.0 | 0.00 | 0.00 | 0.00 | 75 | 1009.4 |
| 20260831022123 | 84 | 229 | 0.0 | 0.0 | 0.00 | 0.00 | 0.00 | 75 | 1009.4 |
| 20260831021627 | 84 | 229 | 0.0 | 0.0 | 0.00 | 0.00 | 0.00 | 74 | 1009.4 |
| 20260831021126 | 85 | 229 | 0.0 | 0.0 | 0.00 | 0.00 | 0.00 | 74 | 1009.4 |
| 20260831020630 | 85 | 229 | 0.0 | 0.0 | 0.00 | 0.00 | 0.00 | 73 | 1009.3 |
| 20260831020127 | 85 | 229 | 0.0 | 0.0 | 0.00 | 0.00 | 0.00 | 72 | 1009.3 |
| 20260831015630 | 85 | 229 | 0.0 | 0.0 | 0.00 | 0.00 | 0.00 | 71 | 1009.3 |
| 20260831015128 | 86 | 229 | 0.0 | 0.0 | 0.00 | 0.00 | 0.00 | 71 | 1009.2 |
| 20260831014631 | 86 | 229 | 0.0 | 0.0 | 0.00 | 0.00 | 0.00 | 70 | 1009.1 |
| 20260831014133 | 86 | 229 | 0.0 | 0.0 | 0.00 | 0.00 | 0.00 | 69 | 1009.0 |
| 20260831013620 | 87 | 229 | 0.0 | 0.0 | 0.00 | 0.00 | 0.00 | 68 | 1008.9 |
| 20260831013118 | 87 | 229 | 0.0 | 0.0 | 0.00 | 0.00 | 0.00 | 68 | 1008.9 |
| 20260831012623 | 87 | 229 | 0.0 | 0.0 | 0.00 | 0.00 | 0.00 | 67 | 1008.9 |
| 20260831012118 | 88 | 229 | 0.0 | 0.0 | 0.00 | 0.00 | 0.00 | 67 | 1009.0 |
| 20260831011622 | 88 | 229 | 0.0 | 0.0 | 0.00 | 0.00 | 0.00 | 67 | 1008.9 |
| 20260831011139 | 88 | 229 | 0.0 | 0.0 | 0.00 | 0.00 | 0.00 | 66 | 1008.9 |
| 20260831010623 | 89 | 229 | 0.0 | 0.0 | 0.00 | 0.00 | 0.00 | 65 | 1008.9 |
| 20260831010125 | 89 | 229 | 0.0 | 0.0 | 0.00 | 0.00 | 0.00 | 65 | 1008.8 |
| 20260831005625 | 90 | 229 | 0.0 | 2.0 | 0.00 | 0.00 | 0.00 | 64 | 1008.8 |
| 20260831005122 | 90 | 229 | 0.0 | 2.0 | 0.00 | 0.00 | 0.00 | 63 | 1008.7 |
| 20260831004628 | 91 | 229 | 0.0 | 3.0 | 0.00 | 0.00 | 0.00 | 63 | 1008.8 |
| 20260831004125 | 91 | 229 | 0.0 | 3.0 | 0.00 | 0.00 | 0.00 | 62 | 1008.8 |
| 20260831003629 | 91 | 229 | 0.0 | 3.0 | 0.00 | 0.00 | 0.00 | 62 | 1008.9 |
| 20260831003126 | 91 | 229 | 0.0 | 4.0 | 0.00 | 0.00 | 0.00 | 61 | 1008.8 |
| 20260831002653 | 92 | 249 | 1.0 | 4.0 | 0.00 | 0.00 | 0.00 | 60 | 1008.8 |
| 20260831002115 | 92 | 243 | 1.0 | 3.0 | 0.00 | 0.00 | 0.00 | 60 | 1008.9 |
| 20260831001624 | 92 | 275 | 1.0 | 3.0 | 0.00 | 0.00 | 0.00 | 60 | 1008.8 |
| 20260831001121 | 92 | 275 | 1.0 | 3.0 | 0.00 | 0.00 | 0.00 | 59 | 1008.8 |
| 20260831000625 | 92 | 275 | 2.0 | 3.0 | 0.00 | 0.00 | 0.00 | 59 | 1008.8 |
| 20260831000126 | 93 | 263 | 1.0 | 3.0 | 0.00 | 0.00 | 0.00 | 59 | 1008.7 |
| 20260830235630 | 92 | 234 | 1.0 | 3.0 | 0.00 | 0.00 | 0.00 | 59 | 1008.7 |
| 20260830235132 | 92 | 234 | 2.0 | 5.0 | 0.00 | 0.00 | 0.00 | 58 | 1008.8 |
| 20260830234617 | 93 | 264 | 2.0 | 5.0 | 0.00 | 0.00 | 0.00 | 57 | 1008.8 |
| 20260830234121 | 93 | 270 | 2.0 | 5.0 | 0.00 | 0.00 | 0.00 | 57 | 1008.8 |
| 20260830233625 | 93 | 256 | 2.0 | 7.0 | 0.00 | 0.00 | 0.00 | 57 | 1008.8 |
| 20260830233123 | 93 | 207 | 3.0 | 9.0 | 0.00 | 0.00 | 0.00 | 57 | 1008.8 |
| 20260830232628 | 93 | 262 | 2.0 | 9.0 | 0.00 | 0.00 | 0.00 | 57 | 1008.7 |
| 20260830232146 | 93 | 275 | 3.0 | 6.0 | 0.00 | 0.00 | 0.00 | 57 | 1008.7 |
| 20260830231650 | 93 | 233 | 3.0 | 8.0 | 0.00 | 0.00 | 0.00 | 57 | 1008.7 |
| 20260830231150 | 93 | 237 | 4.0 | 8.0 | 0.00 | 0.00 | 0.00 | 56 | 1008.7 |
| 20260830230617 | 93 | 140 | 4.0 | 7.0 | 0.00 | 0.00 | 0.00 | 55 | 1008.7 |
| 20260830230117 | 93 | 264 | 2.0 | 6.0 | 0.00 | 0.00 | 0.00 | 57 | 1008.6 |
| 20260830225640 | 93 | 211 | 3.0 | 7.0 | 0.00 | 0.00 | 0.00 | 57 | 1008.6 |
| 20260830225132 | 93 | 226 | 2.0 | 7.0 | 0.00 | 0.00 | 0.00 | 57 | 1008.6 |
| 20260830224620 | 92 | 217 | 2.0 | 8.0 | 0.00 | 0.00 | 0.00 | 57 | 1008.6 |
| 20260830224122 | 92 | 162 | 4.0 | 8.0 | 0.00 | 0.00 | 0.00 | 57 | 1008.6 |
| 20260830223641 | 92 | 221 | 1.0 | 6.0 | 0.00 | 0.00 | 0.00 | 58 | 1008.5 |
| 20260830223118 | 92 | 241 | 2.0 | 14.0 | 0.00 | 0.00 | 0.00 | 57 | 1008.6 |
| 20260830222642 | 92 | 214 | 5.0 | 14.0 | 0.00 | 0.00 | 0.00 | 56 | 1008.6 |
| 20260830222122 | 92 | 154 | 5.0 | 13.0 | 0.00 | 0.00 | 0.00 | 56 | 1008.5 |
| 20260830221645 | 92 | 230 | 3.0 | 10.0 | 0.00 | 0.00 | 0.00 | 56 | 1008.5 |
| 20260830221142 | 92 | 246 | 3.0 | 9.0 | 0.00 | 0.00 | 0.00 | 56 | 1008.6 |
| 20260830220631 | 92 | 229 | 3.0 | 10.0 | 0.00 | 0.00 | 0.00 | 56 | 1008.5 |
| 20260830220131 | 92 | 241 | 6.0 | 10.0 | 0.00 | 0.00 | 0.00 | 56 | 1008.5 |
| 20260830215634 | 91 | 206 | 4.0 | 10.0 | 0.00 | 0.00 | 0.00 | 57 | 1008.5 |
| 20260830215135 | 92 | 241 | 5.0 | 12.0 | 0.00 | 0.00 | 0.00 | 56 | 1008.4 |
| 20260830214638 | 92 | 241 | 4.0 | 12.0 | 0.00 | 0.00 | 0.00 | 56 | 1008.4 |
| 20260830214137 | 92 | 215 | 4.0 | 7.0 | 0.00 | 0.00 | 0.00 | 55 | 1008.4 |
| 20260830213619 | 92 | 181 | 3.0 | 8.0 | 0.00 | 0.00 | 0.00 | 56 | 1008.4 |
| 20260830213119 | 91 | 225 | 3.0 | 9.0 | 0.00 | 0.00 | 0.00 | 56 | 1008.4 |
| 20260830212642 | 91 | 254 | 5.0 | 12.0 | 0.00 | 0.00 | 0.00 | 56 | 1008.4 |
| 20260830212123 | 91 | 111 | 2.0 | 12.0 | 0.00 | 0.00 | 0.00 | 56 | 1008.4 |
| 20260830211627 | 91 | 239 | 4.0 | 9.0 | 0.00 | 0.00 | 0.00 | 56 | 1008.6 |
| 20260830211125 | 91 | 225 | 2.0 | 9.0 | 0.00 | 0.00 | 0.00 | 58 | 1008.7 |
| 20260830210629 | 90 | 211 | 2.0 | 6.0 | 0.00 | 0.00 | 0.00 | 59 | 1008.8 |
| 20260830210131 | 90 | 229 | 4.0 | 12.0 | 0.00 | 0.00 | 0.00 | 58 | 1008.8 |
| 20260830205618 | 90 | 302 | 3.0 | 12.0 | 0.00 | 0.00 | 0.00 | 58 | 1008.9 |
| 20260830205119 | 90 | 209 | 4.0 | 11.0 | 0.00 | 0.00 | 0.00 | 59 | 1008.9 |
| 20260830204648 | 90 | 200 | 3.0 | 12.0 | 0.00 | 0.00 | 0.00 | 59 | 1009.0 |
| 20260830204124 | 89 | 265 | 5.0 | 12.0 | 0.00 | 0.00 | 0.00 | 59 | 1009.1 |
| 20260830203631 | 89 | 252 | 7.0 | 10.0 | 0.00 | 0.00 | 0.00 | 59 | 1009.1 |
| 20260830203130 | 89 | 249 | 4.0 | 9.0 | 0.00 | 0.00 | 0.00 | 60 | 1009.1 |
| 20260830202617 | 88 | 253 | 5.0 | 11.0 | 0.00 | 0.00 | 0.00 | 60 | 1009.1 |
| 20260830202135 | 89 | 219 | 4.0 | 9.0 | 0.00 | 0.00 | 0.00 | 60 | 1009.1 |
| 20260830201621 | 89 | 237 | 3.0 | 6.0 | 0.00 | 0.00 | 0.00 | 60 | 1008.9 |
| 20260830201122 | 89 | 246 | 4.0 | 6.0 | 0.00 | 0.00 | 0.00 | 61 | 1009.0 |
| 20260830200625 | 89 | 243 | 3.0 | 6.0 | 0.00 | 0.00 | 0.00 | 59 | 1008.9 |
| 20260830200128 | 88 | 245 | 1.0 | 5.0 | 0.00 | 0.00 | 0.00 | 63 | 1008.9 |
| 20260830195631 | 87 | 206 | 2.0 | 6.0 | 0.00 | 0.00 | 0.00 | 65 | 1009.2 |
| 20260830195136 | 87 | 214 | 3.0 | 6.0 | 0.00 | 0.00 | 0.00 | 65 | 1009.3 |
| 20260830194619 | 86 | 233 | 2.0 | 6.0 | 0.00 | 0.00 | 0.00 | 65 | 1009.5 |
| 20260830194116 | 86 | 275 | 3.0 | 11.0 | 0.00 | 0.00 | 0.00 | 64 | 1009.6 |
| 20260830193622 | 86 | 272 | 3.0 | 11.0 | 0.00 | 0.00 | 0.00 | 64 | 1009.6 |
| 20260830193123 | 86 | 224 | 5.0 | 9.0 | 0.00 | 0.00 | 0.00 | 64 | 1009.5 |
| 20260830192627 | 86 | 220 | 3.0 | 10.0 | 0.00 | 0.00 | 0.00 | 64 | 1009.6 |
| 20260830192124 | 87 | 256 | 4.0 | 11.0 | 0.00 | 0.00 | 0.00 | 62 | 1009.5 |
| 20260830191629 | 87 | 254 | 4.0 | 11.0 | 0.00 | 0.00 | 0.00 | 62 | 1009.6 |
| 20260830191127 | 87 | 166 | 2.0 | 8.0 | 0.00 | 0.00 | 0.00 | 61 | 1009.5 |
| 20260830190651 | 88 | 239 | 3.0 | 9.0 | 0.00 | 0.00 | 0.00 | 59 | 1009.3 |
| 20260830190131 | 88 | 219 | 5.0 | 11.0 | 0.00 | 0.00 | 0.00 | 59 | 1009.1 |
| 20260830185653 | 88 | 243 | 4.0 | 11.0 | 0.00 | 0.00 | 0.00 | 59 | 1009.3 |
| 20260830185148 | 87 | 199 | 2.0 | 10.0 | 0.00 | 0.00 | 0.00 | 62 | 1009.3 |
| 20260830184632 | 86 | 245 | 4.0 | 9.0 | 0.00 | 0.00 | 0.00 | 61 | 1009.4 |
| 20260830184135 | 86 | 221 | 5.0 | 9.0 | 0.00 | 0.00 | 0.00 | 60 | 1009.4 |
| 20260830183621 | 86 | 277 | 3.0 | 8.0 | 0.00 | 0.00 | 0.00 | 60 | 1009.3 |
| 20260830183122 | 86 | 263 | 4.0 | 11.0 | 0.00 | 0.00 | 0.00 | 60 | 1009.4 |
| 20260830182632 | 86 | 206 | 4.0 | 11.0 | 0.00 | 0.00 | 0.00 | 60 | 1009.5 |
| 20260830182131 | 86 | 256 | 4.0 | 14.0 | 0.00 | 0.00 | 0.00 | 60 | 1009.6 |
| 20260830181634 | 86 | 250 | 6.0 | 14.0 | 0.00 | 0.00 | 0.00 | 59 | 1009.7 |
| 20260830181133 | 87 | 262 | 6.0 | 11.0 | 0.00 | 0.00 | 0.00 | 59 | 1009.9 |
| 20260830180615 | 87 | 195 | 5.0 | 12.0 | 0.00 | 0.00 | 0.00 | 58 | 1009.9 |
| 20260830180119 | 87 | 217 | 5.0 | 12.0 | 0.00 | 0.00 | 0.00 | 59 | 1009.9 |
| 20260830175626 | 87 | 221 | 7.0 | 12.0 | 0.00 | 0.00 | 0.00 | 58 | 1010.0 |
| 20260830175125 | 87 | 254 | 4.0 | 12.0 | 0.00 | 0.00 | 0.00 | 59 | 1010.0 |
| 20260830174649 | 87 | 224 | 7.0 | 11.0 | 0.00 | 0.00 | 0.00 | 57 | 1009.9 |
| 20260830174130 | 87 | 202 | 6.0 | 13.0 | 0.00 | 0.00 | 0.00 | 57 | 1009.9 |
| 20260830173633 | 87 | 178 | 8.0 | 14.0 | 0.00 | 0.00 | 0.00 | 55 | 1009.9 |
| 20260830173133 | 88 | 254 | 7.0 | 14.0 | 0.00 | 0.00 | 0.00 | 57 | 1010.1 |
| 20260830172617 | 88 | 209 | 4.0 | 12.0 | 0.00 | 0.00 | 0.00 | 60 | 1009.9 |
| 20260830172116 | 87 | 195 | 4.0 | 11.0 | 0.00 | 0.00 | 0.00 | 59 | 1009.8 |
| 20260830171623 | 87 | 229 | 3.0 | 10.0 | 0.00 | 0.00 | 0.00 | 58 | 1009.9 |
| 20260830171141 | 86 | 156 | 5.0 | 9.0 | 0.00 | 0.00 | 0.00 | 60 | 1009.8 |
| 20260830170646 | 86 | 271 | 4.0 | 9.0 | 0.00 | 0.00 | 0.00 | 60 | 1009.9 |
| 20260830170144 | 86 | 241 | 3.0 | 10.0 | 0.00 | 0.00 | 0.00 | 60 | 1009.9 |
| 20260830165647 | 86 | 212 | 3.0 | 14.0 | 0.00 | 0.00 | 0.00 | 58 | 1009.9 |
| 20260830165124 | 86 | 300 | 6.0 | 14.0 | 0.00 | 0.00 | 0.00 | 57 | 1009.9 |
| 20260830164636 | 87 | 182 | 4.0 | 10.0 | 0.00 | 0.00 | 0.00 | 57 | 1009.9 |
| 20260830164135 | 86 | 252 | 5.0 | 10.0 | 0.00 | 0.00 | 0.00 | 58 | 1009.9 |
| 20260830163623 | 86 | 217 | 6.0 | 10.0 | 0.00 | 0.00 | 0.00 | 58 | 1009.9 |
| 20260830163126 | 86 | 193 | 3.0 | 12.0 | 0.00 | 0.00 | 0.00 | 59 | 1009.9 |
| 20260830162629 | 85 | 252 | 5.0 | 12.0 | 0.00 | 0.00 | 0.00 | 59 | 1010.0 |
| 20260830162130 | 85 | 243 | 4.0 | 9.0 | 0.00 | 0.00 | 0.00 | 62 | 1009.9 |
| 20260830161618 | 84 | 254 | 2.0 | 6.0 | 0.00 | 0.00 | 0.00 | 66 | 1010.0 |
| 20260830161137 | 84 | 217 | 3.0 | 7.0 | 0.00 | 0.00 | 0.00 | 65 | 1010.1 |
| 20260830160619 | 83 | 115 | 3.0 | 7.0 | 0.00 | 0.00 | 0.00 | 65 | 1010.0 |
| 20260830160142 | 83 | 238 | 3.0 | 7.0 | 0.00 | 0.00 | 0.00 | 65 | 1009.9 |
| 20260830155628 | 83 | 186 | 4.0 | 7.0 | 0.00 | 0.00 | 0.00 | 65 | 1009.8 |
| 20260830155125 | 84 | 188 | 4.0 | 8.0 | 0.00 | 0.00 | 0.00 | 65 | 1009.9 |
| 20260830154629 | 83 | 137 | 3.0 | 8.0 | 0.00 | 0.00 | 0.00 | 65 | 1009.9 |
| 20260830154127 | 83 | 131 | 2.0 | 8.0 | 0.00 | 0.00 | 0.00 | 65 | 1009.9 |
| 20260830153635 | 83 | 172 | 3.0 | 7.0 | 0.00 | 0.00 | 0.00 | 65 | 1010.1 |
| 20260830153118 | 83 | 183 | 3.0 | 10.0 | 0.00 | 0.00 | 0.00 | 66 | 1010.1 |
| 20260830152629 | 83 | 112 | 2.0 | 10.0 | 0.00 | 0.00 | 0.00 | 66 | 1010.2 |
| 20260830152129 | 83 | 142 | 4.0 | 10.0 | 0.00 | 0.00 | 0.00 | 66 | 1009.9 |
| 20260830151636 | 82 | 118 | 3.0 | 6.0 | 0.00 | 0.00 | 0.00 | 66 | 1009.8 |
| 20260830151114 | 82 | 227 | 2.0 | 8.0 | 0.00 | 0.00 | 0.00 | 66 | 1009.8 |
| 20260830150621 | 82 | 178 | 4.0 | 9.0 | 0.00 | 0.00 | 0.00 | 65 | 1010.0 |
| 20260830150123 | 82 | 174 | 1.0 | 9.0 | 0.00 | 0.00 | 0.00 | 67 | 1009.9 |
| 20260830145627 | 81 | 194 | 2.0 | 9.0 | 0.00 | 0.00 | 0.00 | 68 | 1009.9 |
| 20260830145125 | 80 | 185 | 3.0 | 7.0 | 0.00 | 0.00 | 0.00 | 68 | 1009.9 |
| 20260830144634 | 80 | 185 | 2.0 | 7.0 | 0.00 | 0.00 | 0.00 | 68 | 1009.8 |
| 20260830144133 | 80 | 175 | 3.0 | 6.0 | 0.00 | 0.00 | 0.00 | 68 | 1009.9 |
| 20260830143620 | 80 | 186 | 1.0 | 5.0 | 0.00 | 0.00 | 0.00 | 69 | 1009.9 |
| 20260830143117 | 80 | 160 | 2.0 | 5.0 | 0.00 | 0.00 | 0.00 | 69 | 1009.9 |
| 20260830142623 | 80 | 179 | 1.0 | 5.0 | 0.00 | 0.00 | 0.00 | 69 | 1010.1 |
| 20260830142120 | 79 | 215 | 2.0 | 5.0 | 0.00 | 0.00 | 0.00 | 69 | 1010.1 |
| 20260830141644 | 79 | 148 | 1.0 | 5.0 | 0.00 | 0.00 | 0.00 | 69 | 1009.8 |
| 20260830141121 | 79 | 142 | 3.0 | 5.0 | 0.00 | 0.00 | 0.00 | 69 | 1009.8 |
| 20260830140647 | 79 | 160 | 1.0 | 5.0 | 0.00 | 0.00 | 0.00 | 69 | 1009.9 |
| 20260830140127 | 79 | 168 | 1.0 | 5.0 | 0.00 | 0.00 | 0.00 | 69 | 1009.8 |
| 20260830135632 | 79 | 174 | 1.0 | 5.0 | 0.00 | 0.00 | 0.00 | 68 | 1009.9 |
| 20260830135114 | 79 | 170 | 1.0 | 4.0 | 0.00 | 0.00 | 0.00 | 69 | 1009.9 |
| 20260830134621 | 79 | 185 | 2.0 | 7.0 | 0.00 | 0.00 | 0.00 | 68 | 1009.9 |
| 20260830134117 | 79 | 196 | 2.0 | 7.0 | 0.00 | 0.00 | 0.00 | 68 | 1009.8 |
| 20260830133625 | 79 | 217 | 1.0 | 6.0 | 0.00 | 0.00 | 0.00 | 68 | 1009.9 |
| 20260830133122 | 79 | 181 | 3.0 | 6.0 | 0.00 | 0.00 | 0.00 | 68 | 1009.9 |
| 20260830132625 | 79 | 260 | 1.0 | 7.0 | 0.00 | 0.00 | 0.00 | 68 | 1009.9 |
| 20260830132122 | 79 | 185 | 1.0 | 7.0 | 0.00 | 0.00 | 0.00 | 69 | 1010.0 |
| 20260830131646 | 79 | 219 | 3.0 | 4.0 | 0.00 | 0.00 | 0.00 | 69 | 1010.1 |
| 20260830131123 | 79 | 176 | 0.0 | 4.0 | 0.00 | 0.00 | 0.00 | 68 | 1010.1 |
| 20260830130632 | 79 | 153 | 1.0 | 6.0 | 0.00 | 0.00 | 0.00 | 68 | 1009.9 |
| 20260830130131 | 79 | 216 | 2.0 | 6.0 | 0.00 | 0.00 | 0.00 | 68 | 1009.9 |
| 20260830125638 | 79 | 175 | 0.0 | 5.0 | 0.00 | 0.00 | 0.00 | 68 | 1010.0 |
| 20260830125133 | 78 | 208 | 2.0 | 5.0 | 0.00 | 0.00 | 0.00 | 68 | 1010.0 |
| 20260830124618 | 78 | 188 | 2.0 | 6.0 | 0.00 | 0.00 | 0.00 | 69 | 1010.0 |
| 20260830124139 | 78 | 215 | 2.0 | 6.0 | 0.00 | 0.00 | 0.00 | 69 | 1010.0 |
| 20260830123627 | 78 | 178 | 0.0 | 6.0 | 0.00 | 0.00 | 0.00 | 69 | 1009.9 |
| 20260830123131 | 78 | 137 | 1.0 | 6.0 | 0.00 | 0.00 | 0.00 | 69 | 1009.8 |
| 20260830122637 | 78 | 212 | 2.0 | 7.0 | 0.00 | 0.00 | 0.00 | 70 | 1009.8 |
| 20260830122133 | 78 | 169 | 2.0 | 7.0 | 0.00 | 0.00 | 0.00 | 69 | 1009.7 |
| 20260830121618 | 78 | 162 | 3.0 | 6.0 | 0.00 | 0.00 | 0.00 | 70 | 1009.8 |
| 20260830121122 | 78 | 190 | 2.0 | 6.0 | 0.00 | 0.00 | 0.00 | 70 | 1009.9 |
| 20260830120626 | 78 | 183 | 1.0 | 4.0 | 0.00 | 0.00 | 0.00 | 70 | 1010.1 |
| 20260830120152 | 78 | 213 | 1.0 | 4.0 | 0.00 | 0.00 | 0.00 | 70 | 1010.1 |
| 20260830115636 | 78 | 164 | 1.0 | 2.0 | 0.00 | 0.00 | 0.00 | 70 | 1010.0 |
| 20260830115133 | 78 | 164 | 0.0 | 4.0 | 0.00 | 0.00 | 0.00 | 70 | 1009.9 |
| 20260830114617 | 78 | 99 | 1.0 | 4.0 | 0.00 | 0.00 | 0.00 | 70 | 1009.9 |
| 20260830114155 | 78 | 146 | 1.0 | 6.0 | 0.00 | 0.00 | 0.00 | 70 | 1009.9 |
| 20260830113657 | 78 | 186 | 1.0 | 6.0 | 0.00 | 0.00 | 0.00 | 70 | 1009.9 |
| 20260830113133 | 78 | 123 | 3.0 | 5.0 | 0.00 | 0.00 | 0.00 | 70 | 1009.9 |
| 20260830112638 | 78 | 199 | 1.0 | 2.0 | 0.00 | 0.00 | 0.00 | 70 | 1010.1 |
| 20260830112118 | 78 | 199 | 1.0 | 2.0 | 0.00 | 0.00 | 0.00 | 70 | 1010.3 |
| 20260830111622 | 78 | 199 | 0.0 | 4.0 | 0.00 | 0.00 | 0.00 | 70 | 1010.4 |
| 20260830111119 | 78 | 199 | 0.0 | 4.0 | 0.00 | 0.00 | 0.00 | 69 | 1010.5 |
| 20260830110644 | 78 | 298 | 0.0 | 3.0 | 0.00 | 0.00 | 0.00 | 69 | 1010.4 |
| 20260830110128 | 78 | 298 | 1.0 | 5.0 | 0.00 | 0.00 | 0.00 | 69 | 1010.3 |
| 20260830105635 | 78 | 211 | 2.0 | 6.0 | 0.00 | 0.00 | 0.00 | 69 | 1010.3 |
| 20260830105154 | 78 | 175 | 1.0 | 6.0 | 0.00 | 0.00 | 0.00 | 69 | 1010.0 |
| 20260830104618 | 78 | 200 | 2.0 | 6.0 | 0.00 | 0.00 | 0.00 | 69 | 1010.1 |
| 20260830104136 | 78 | 198 | 1.0 | 5.0 | 0.00 | 0.00 | 0.00 | 70 | 1010.3 |
| 20260830103620 | 78 | 186 | 0.0 | 5.0 | 0.00 | 0.00 | 0.00 | 70 | 1010.3 |
| 20260830103118 | 78 | 209 | 2.0 | 5.0 | 0.00 | 0.00 | 0.00 | 70 | 1010.4 |
| 20260830102623 | 78 | 250 | 3.0 | 6.0 | 0.00 | 0.00 | 0.00 | 70 | 1010.4 |
| 20260830102140 | 78 | 216 | 3.0 | 6.0 | 0.00 | 0.00 | 0.00 | 70 | 1010.4 |
| 20260830101627 | 78 | 232 | 2.0 | 5.0 | 0.00 | 0.00 | 0.00 | 70 | 1010.2 |
| 20260830101124 | 78 | 193 | 3.0 | 6.0 | 0.00 | 0.00 | 0.00 | 70 | 1010.3 |
| 20260830100628 | 78 | 187 | 2.0 | 6.0 | 0.00 | 0.00 | 0.00 | 71 | 1010.3 |
| 20260830100146 | 78 | 285 | 2.0 | 5.0 | 0.00 | 0.00 | 0.00 | 71 | 1010.4 |
| 20260830095628 | 78 | 229 | 1.0 | 4.0 | 0.00 | 0.00 | 0.00 | 71 | 1010.5 |
| 20260830095130 | 78 | 236 | 2.0 | 5.0 | 0.00 | 0.00 | 0.00 | 71 | 1010.6 |
| 20260830094618 | 78 | 263 | 1.0 | 5.0 | 0.00 | 0.00 | 0.00 | 71 | 1010.5 |
| 20260830094129 | 79 | 158 | 1.0 | 5.0 | 0.00 | 0.00 | 0.00 | 70 | 1010.4 |
| 20260830093632 | 79 | 206 | 3.0 | 7.0 | 0.00 | 0.00 | 0.00 | 70 | 1010.5 |
| 20260830093129 | 79 | 250 | 2.0 | 7.0 | 0.00 | 0.00 | 0.00 | 70 | 1010.5 |
| 20260830092635 | 79 | 202 | 4.0 | 7.0 | 0.00 | 0.00 | 0.00 | 69 | 1010.2 |
| 20260830092136 | 79 | 215 | 4.0 | 9.0 | 0.00 | 0.00 | 0.00 | 69 | 1010.0 |
| 20260830091619 | 79 | 207 | 2.0 | 8.0 | 0.00 | 0.00 | 0.00 | 69 | 1009.9 |
| 20260830091120 | 79 | 238 | 3.0 | 8.0 | 0.00 | 0.00 | 0.00 | 69 | 1009.9 |
| 20260830090625 | 79 | 177 | 5.0 | 7.0 | 0.00 | 0.00 | 0.00 | 69 | 1009.9 |
| 20260830090144 | 79 | 185 | 2.0 | 7.0 | 0.00 | 0.00 | 0.00 | 69 | 1009.8 |
| 20260830085630 | 79 | 206 | 3.0 | 6.0 | 0.00 | 0.00 | 0.00 | 69 | 1009.9 |
| 20260830085131 | 79 | 197 | 3.0 | 6.0 | 0.00 | 0.00 | 0.00 | 69 | 1009.9 |
| 20260830084655 | 79 | 118 | 1.0 | 9.0 | 0.00 | 0.00 | 0.00 | 70 | 1009.8 |
| 20260830084131 | 79 | 208 | 3.0 | 10.0 | 0.00 | 0.00 | 0.00 | 70 | 1009.8 |
| 20260830083617 | 79 | 134 | 2.0 | 10.0 | 0.00 | 0.00 | 0.00 | 70 | 1009.9 |
| 20260830083118 | 79 | 193 | 2.0 | 10.0 | 0.00 | 0.00 | 0.00 | 70 | 1009.9 |
| 20260830082621 | 79 | 218 | 4.0 | 7.0 | 0.00 | 0.00 | 0.00 | 70 | 1009.9 |
| 20260830082119 | 79 | 257 | 1.0 | 5.0 | 0.00 | 0.00 | 0.00 | 70 | 1009.9 |
| 20260830081622 | 79 | 186 | 2.0 | 7.0 | 0.00 | 0.00 | 0.00 | 70 | 1009.9 |
| 20260830081140 | 79 | 236 | 2.0 | 8.0 | 0.00 | 0.00 | 0.00 | 70 | 1009.8 |
| 20260830080626 | 79 | 194 | 2.0 | 6.0 | 0.00 | 0.00 | 0.00 | 70 | 1009.8 |
| 20260830080123 | 79 | 233 | 3.0 | 6.0 | 0.00 | 0.00 | 0.00 | 70 | 1009.8 |
| 20260830075629 | 79 | 200 | 4.0 | 6.0 | 0.00 | 0.00 | 0.00 | 70 | 1009.8 |
| 20260830075129 | 79 | 177 | 2.0 | 9.0 | 0.00 | 0.00 | 0.00 | 70 | 1009.7 |
| 20260830074635 | 79 | 200 | 3.0 | 9.0 | 0.00 | 0.00 | 0.00 | 70 | 1009.7 |
| 20260830074133 | 79 | 262 | 2.0 | 8.0 | 0.00 | 0.00 | 0.00 | 70 | 1009.6 |
| 20260830073617 | 79 | 289 | 3.0 | 8.0 | 0.00 | 0.00 | 0.00 | 70 | 1009.7 |
| 20260830073133 | 79 | 226 | 3.0 | 8.0 | 0.00 | 0.00 | 0.00 | 70 | 1009.7 |
| 20260830072635 | 79 | 245 | 3.0 | 8.0 | 0.00 | 0.00 | 0.00 | 70 | 1009.7 |
| 20260830072132 | 79 | 232 | 4.0 | 9.0 | 0.00 | 0.00 | 0.00 | 69 | 1009.6 |
| 20260830071618 | 80 | 227 | 4.0 | 9.0 | 0.00 | 0.00 | 0.00 | 69 | 1009.7 |
| 20260830071117 | 80 | 244 | 2.0 | 7.0 | 0.00 | 0.00 | 0.00 | 69 | 1009.7 |
| 20260830070621 | 80 | 243 | 3.0 | 8.0 | 0.00 | 0.00 | 0.00 | 69 | 1009.7 |
| 20260830070120 | 80 | 181 | 3.0 | 8.0 | 0.00 | 0.00 | 0.00 | 69 | 1009.7 |
| 20260830065624 | 80 | 204 | 4.0 | 7.0 | 0.00 | 0.00 | 0.00 | 69 | 1009.7 |
| 20260830065140 | 80 | 174 | 2.0 | 8.0 | 0.00 | 0.00 | 0.00 | 69 | 1009.8 |
| 20260830064622 | 80 | 255 | 3.0 | 8.0 | 0.00 | 0.00 | 0.00 | 69 | 1009.8 |
| 20260830064119 | 80 | 235 | 3.0 | 8.0 | 0.00 | 0.00 | 0.00 | 69 | 1009.8 |
| 20260830063624 | 80 | 232 | 2.0 | 10.0 | 0.00 | 0.00 | 0.00 | 68 | 1009.9 |
| 20260830063122 | 81 | 237 | 5.0 | 10.0 | 0.00 | 0.00 | 0.00 | 68 | 1010.1 |
| 20260830062647 | 81 | 177 | 4.0 | 9.0 | 0.00 | 0.00 | 0.00 | 68 | 1010.1 |
| 20260830062127 | 81 | 268 | 3.0 | 9.0 | 0.00 | 0.00 | 0.00 | 68 | 1010.1 |
| 20260830061631 | 81 | 225 | 3.0 | 7.0 | 0.00 | 0.00 | 0.00 | 68 | 1010.0 |
| 20260830061128 | 81 | 178 | 4.0 | 7.0 | 0.00 | 0.00 | 0.00 | 68 | 1010.0 |
| 20260830060633 | 81 | 175 | 4.0 | 7.0 | 0.00 | 0.00 | 0.00 | 67 | 1009.9 |
| 20260830060128 | 81 | 176 | 4.0 | 10.0 | 0.00 | 0.00 | 0.00 | 68 | 1010.0 |
| 20260830055632 | 81 | 286 | 4.0 | 10.0 | 0.00 | 0.00 | 0.00 | 67 | 1010.0 |
| 20260830055132 | 81 | 201 | 2.0 | 9.0 | 0.00 | 0.00 | 0.00 | 67 | 1010.1 |
| 20260830054655 | 82 | 198 | 2.0 | 8.0 | 0.00 | 0.00 | 0.00 | 67 | 1010.0 |
| 20260830054135 | 82 | 210 | 3.0 | 11.0 | 0.00 | 0.00 | 0.00 | 67 | 1010.0 |
| 20260830053619 | 82 | 154 | 1.0 | 11.0 | 0.00 | 0.00 | 0.00 | 67 | 1009.9 |
| 20260830053136 | 82 | 163 | 3.0 | 9.0 | 0.00 | 0.00 | 0.00 | 67 | 1009.9 |
| 20260830052620 | 82 | 177 | 4.0 | 10.0 | 0.00 | 0.00 | 0.00 | 67 | 1009.9 |
| 20260830052118 | 82 | 199 | 5.0 | 10.0 | 0.00 | 0.00 | 0.00 | 67 | 1009.9 |
| 20260830051623 | 82 | 220 | 3.0 | 8.0 | 0.00 | 0.00 | 0.00 | 67 | 1009.8 |
| 20260830051122 | 82 | 220 | 4.0 | 8.0 | 0.00 | 0.00 | 0.00 | 67 | 1009.9 |
| 20260830050633 | 83 | 165 | 4.0 | 8.0 | 0.00 | 0.00 | 0.00 | 66 | 1009.8 |
| 20260830050133 | 83 | 180 | 5.0 | 12.0 | 0.00 | 0.00 | 0.00 | 66 | 1009.8 |
| 20260830045631 | 83 | 232 | 3.0 | 11.0 | 0.00 | 0.00 | 0.00 | 66 | 1009.7 |
| 20260830045129 | 83 | 215 | 4.0 | 10.0 | 0.00 | 0.00 | 0.00 | 66 | 1009.7 |
| 20260830044630 | 83 | 174 | 5.0 | 13.0 | 0.00 | 0.00 | 0.00 | 66 | 1009.8 |
| 20260830044127 | 83 | 262 | 6.0 | 13.0 | 0.00 | 0.00 | 0.00 | 66 | 1009.8 |
| 20260830043651 | 83 | 193 | 2.0 | 11.0 | 0.00 | 0.00 | 0.00 | 66 | 1009.8 |
| 20260830043130 | 83 | 162 | 6.0 | 11.0 | 0.00 | 0.00 | 0.00 | 66 | 1009.8 |
| 20260830042637 | 84 | 195 | 4.0 | 13.0 | 0.00 | 0.00 | 0.00 | 66 | 1009.8 |